Weather History for KCGE - September, 2013

Change the Weather History Date:

Saturday, September 28, 2013

  Actual Average (KESN) Record (KESN)
Temperature  
Mean Temperature 63 °F -  
Max Temperature 73 °F 75 °F 89 °F (1954)
Min Temperature 53 °F 57 °F 38 °F (1957)
Degree Days  
Heating Degree Days 2    
Growing Degree Days 13 (Base 50)    
Moisture  
Dew Point 53 °F    
Average Humidity 74    
Maximum Humidity 94    
Minimum Humidity 46    
Precipitation  
Precipitation 0.00 in - - ()
Sea Level Pressure  
Sea Level Pressure 30.24 in    
Wind  
Wind Speed 4 mph (NE)    
Max Wind Speed 12 mph    
Max Gust Speed 17 mph    
Visibility 10 miles    
Events      
Averages and records for this station are not official NWS values.
T = Trace of Precipitation, MM = Missing Value Source: NWS Daily Summary

Daily Weather History Graph

Daily Weather History Graph

Search for Another Location

Airport or City:

Trip Planner

Search our weather history database for the weather conditions in past years. The results will help you decide how hot, cold, wet, or windy it might be!

Date:

Astronomy

Sep. 28, 2013 Rise Set
Actual Time 6:57 AM EDT 6:51 PM EDT
Civil Twilight 6:30 AM EDT 7:17 PM EDT
Nautical Twilight 6:00 AM EDT 7:48 PM EDT
Astronomical Twilight 5:29 AM EDT 8:19 PM EDT
Moon 12:46 AM EDT (9/28) 3:05 PM EDT (9/28)
Length of Visible Light 12h 46m
Length of Day
11h 53m
Last Quarter, 36% of the Moon is Illuminated
Sep 28
Last Quarter
Oct 4
New
Oct 11
First Quarter
Oct 18
Full
Oct 26
Last Quarter

Hourly Weather History & Observations

Time (EDT) Temp. Dew Point Humidity Pressure Visibility Wind Dir Wind Speed Gust Speed Precip Events Conditions
12:06 AM 53.6 °F 51.8 °F 94% 30.24 in 10.0 mi Calm Calm - N/A   Mostly Cloudy
12:26 AM 55.4 °F 53.6 °F 94% 30.24 in 10.0 mi Calm Calm - N/A   Overcast
12:46 AM 55.4 °F 53.6 °F 94% 30.23 in 10.0 mi Calm Calm - N/A   Overcast
1:05 AM 55.4 °F 53.6 °F 94% 30.23 in 10.0 mi Calm Calm - N/A   Scattered Clouds
1:26 AM 53.6 °F 51.8 °F 94% 30.23 in 10.0 mi Calm Calm - N/A   Clear
1:46 AM 53.6 °F 51.8 °F 94% 30.23 in 10.0 mi NNE 3.5 mph - N/A   Clear
2:06 AM 53.6 °F 51.8 °F 94% 30.23 in 10.0 mi Calm Calm - N/A   Scattered Clouds
2:26 AM 55.4 °F 53.6 °F 94% 30.23 in 10.0 mi NNE 4.6 mph - N/A   Mostly Cloudy
2:47 AM 59.0 °F 53.6 °F 82% 30.22 in 10.0 mi North 3.5 mph - N/A   Overcast
3:07 AM 59.0 °F 53.6 °F 82% 30.22 in 10.0 mi North 3.5 mph - N/A   Overcast
3:27 AM 59.0 °F 53.6 °F 82% 30.22 in 10.0 mi North 3.5 mph - N/A   Overcast
3:47 AM 60.8 °F 55.4 °F 82% 30.21 in 10.0 mi Calm Calm - N/A   Overcast
4:07 AM 59.0 °F 53.6 °F 82% 30.21 in 10.0 mi North 3.5 mph - N/A   Scattered Clouds
4:27 AM 55.4 °F 51.8 °F 88% 30.21 in 10.0 mi North 3.5 mph - N/A   Clear
4:47 AM 55.4 °F 51.8 °F 88% 30.22 in 10.0 mi North 3.5 mph - N/A   Clear
5:07 AM 55.4 °F 51.8 °F 88% 30.23 in 10.0 mi North 4.6 mph - N/A   Clear
5:27 AM 59.0 °F 53.6 °F 82% 30.23 in 10.0 mi North 5.8 mph - N/A   Clear
5:47 AM 59.0 °F 53.6 °F 82% 30.23 in 10.0 mi North 6.9 mph - N/A   Clear
6:07 AM 59.0 °F 53.6 °F 82% 30.24 in 10.0 mi North 6.9 mph - N/A   Scattered Clouds
6:27 AM 59.0 °F 53.6 °F 82% 30.24 in 10.0 mi NNE 5.8 mph - N/A   Mostly Cloudy
6:46 AM 59.0 °F 53.6 °F 82% 30.25 in 10.0 mi NNE 6.9 mph - N/A   Overcast
7:07 AM 59.0 °F 53.6 °F 82% 30.25 in 10.0 mi NNE 9.2 mph - N/A   Overcast
7:27 AM 59.0 °F 53.6 °F 82% 30.25 in 10.0 mi NNE 9.2 mph - N/A   Overcast
7:47 AM 60.8 °F 53.6 °F 77% 30.26 in 10.0 mi NNE 6.9 mph - N/A   Overcast
8:07 AM 60.8 °F 53.6 °F 77% 30.27 in 10.0 mi NE 8.1 mph - N/A   Overcast
8:27 AM 60.8 °F 53.6 °F 77% 30.27 in 10.0 mi NE 6.9 mph - N/A   Overcast
8:46 AM 60.8 °F 53.6 °F 77% 30.27 in 10.0 mi NE 5.8 mph - N/A   Overcast
9:07 AM 60.8 °F 53.6 °F 77% 30.28 in 10.0 mi NNE 8.1 mph - N/A   Mostly Cloudy
9:27 AM 60.8 °F 53.6 °F 77% 30.28 in 10.0 mi NNE 6.9 mph - N/A   Overcast
9:47 AM 60.8 °F 55.4 °F 82% 30.29 in 10.0 mi NNE 5.8 mph - N/A   Overcast
10:07 AM 64.4 °F 55.4 °F 73% 30.28 in 10.0 mi NE 5.8 mph - N/A   Mostly Cloudy
10:27 AM 64.4 °F 53.6 °F 68% 30.28 in 10.0 mi North 9.2 mph - N/A   Clear
10:47 AM 68.0 °F 55.4 °F 64% 30.28 in 10.0 mi NE 8.1 mph - N/A   Scattered Clouds
11:08 AM 68.0 °F 53.6 °F 60% 30.28 in 10.0 mi NE 10.4 mph 17.3 mph N/A   Scattered Clouds
11:28 AM 68.0 °F 53.6 °F 60% 30.29 in 10.0 mi NE 8.1 mph 16.1 mph N/A   Scattered Clouds
11:48 AM 69.8 °F 55.4 °F 60% 30.28 in 10.0 mi NE 5.8 mph - N/A   Mostly Cloudy
12:08 PM 69.8 °F 53.6 °F 56% 30.28 in 10.0 mi NE 8.1 mph - N/A   Mostly Cloudy
12:28 PM 69.8 °F 53.6 °F 56% 30.28 in 10.0 mi NE 6.9 mph - N/A   Mostly Cloudy
12:48 PM 69.8 °F 53.6 °F 56% 30.27 in 10.0 mi NNE 6.9 mph - N/A   Mostly Cloudy
1:08 PM 69.8 °F 51.8 °F 53% 30.26 in 10.0 mi NE 11.5 mph - N/A   Scattered Clouds
1:28 PM 71.6 °F 51.8 °F 50% 30.25 in 10.0 mi North 10.4 mph - N/A   Scattered Clouds
1:48 PM 69.8 °F 51.8 °F 53% 30.25 in 10.0 mi ENE 5.8 mph - N/A   Scattered Clouds
2:08 PM 73.4 °F 51.8 °F 47% 30.23 in 10.0 mi North 8.1 mph - N/A   Scattered Clouds
2:28 PM 71.6 °F 51.8 °F 50% 30.23 in 10.0 mi ENE 5.8 mph - N/A   Scattered Clouds
2:48 PM 69.8 °F 51.8 °F 53% 30.23 in 10.0 mi NNE 8.1 mph - N/A   Scattered Clouds
3:08 PM 69.8 °F 51.8 °F 53% 30.23 in 10.0 mi North 6.9 mph - N/A   Mostly Cloudy
3:28 PM 69.8 °F 51.8 °F 53% 30.23 in 10.0 mi North 5.8 mph - N/A   Mostly Cloudy
3:48 PM 69.8 °F 53.6 °F 56% 30.23 in 10.0 mi NNE 3.5 mph - N/A   Scattered Clouds
4:08 PM 73.4 °F 51.8 °F 47% 30.22 in 10.0 mi NNE 8.1 mph - N/A   Mostly Cloudy
4:28 PM 69.8 °F 53.6 °F 56% 30.22 in 10.0 mi ENE 3.5 mph - N/A   Scattered Clouds
4:48 PM 71.6 °F 51.8 °F 50% 30.21 in 10.0 mi NE 5.8 mph - N/A   Clear
5:08 PM 71.6 °F 50.0 °F 46% 30.21 in 10.0 mi ENE 6.9 mph - N/A   Scattered Clouds
5:28 PM 69.8 °F 51.8 °F 53% 30.22 in 10.0 mi ENE 6.9 mph - N/A   Scattered Clouds
5:48 PM 69.8 °F 51.8 °F 53% 30.22 in 10.0 mi ENE 5.8 mph - N/A   Clear
6:08 PM 69.8 °F 53.6 °F 56% 30.22 in 10.0 mi ENE 5.8 mph - N/A   Clear
6:28 PM 68.0 °F 53.6 °F 60% 30.23 in 10.0 mi East 4.6 mph - N/A   Clear
6:48 PM 64.4 °F 53.6 °F 68% 30.23 in 10.0 mi East 4.6 mph - N/A   Clear
7:08 PM 62.6 °F 53.6 °F 72% 30.23 in 10.0 mi East 4.6 mph - N/A   Clear
7:28 PM 62.6 °F 53.6 °F 72% 30.23 in 10.0 mi East 5.8 mph - N/A   Clear
7:48 PM 60.8 °F 53.6 °F 77% 30.23 in 10.0 mi East 5.8 mph - N/A   Clear
8:09 PM 60.8 °F 53.6 °F 77% 30.23 in 10.0 mi East 5.8 mph - N/A   Clear
8:29 PM 60.8 °F 53.6 °F 77% 30.23 in 10.0 mi ENE 3.5 mph - N/A   Clear
8:49 PM 60.8 °F 53.6 °F 77% 30.24 in 10.0 mi ENE 3.5 mph - N/A   Clear
9:09 PM 59.0 °F 51.8 °F 77% 30.24 in 10.0 mi Calm Calm - N/A   Clear
9:29 PM 57.2 °F 53.6 °F 88% 30.24 in 10.0 mi Calm Calm - N/A   Clear
9:49 PM 55.4 °F 51.8 °F 88% 30.23 in 10.0 mi Calm Calm - N/A   Clear
10:09 PM 55.4 °F 51.8 °F 88% 30.23 in 10.0 mi Calm Calm - N/A   Clear
10:29 PM 53.6 °F 51.8 °F 94% 30.23 in 10.0 mi Calm Calm - N/A   Clear
10:49 PM 53.6 °F 50.0 °F 88% 30.23 in 10.0 mi ENE 3.5 mph - N/A   Clear
11:09 PM 55.4 °F 53.6 °F 94% 30.22 in 10.0 mi NE 3.5 mph - N/A   Clear
11:29 PM 55.4 °F 53.6 °F 94% 30.21 in 10.0 mi NE 3.5 mph - N/A   Clear
11:49 PM 55.4 °F 51.8 °F 88% 30.20 in 10.0 mi NNE 3.5 mph - N/A   Clear